2019-060B (44535 NORAD) Tracking and Keplerian Element Data

This shows tracking and keplerian element data for the satellite.

Feedback or suggestion? Click here.




ElementValue
Catalog44535
Name2019-060B
Epoch Orbit6
Epoch Day262.71215345
Epoch Year2019
RAAN13.3704
Inclination97.3604
Eccentricity0.0154288
Argument of Perigee308.901
Mean Anonmoly149.3691
Mean Motion16.29129471
Decay Rate0.82443307
L11 44535U 19060B 19262.71215345 .82443307 39044-5 51407-3 0 9991
L22 44535 97.3604 13.3704 0154288 308.9010 149.3691 16.29129471 60

Live tracking and technical data element details for 2019-060B (NORAD 44535). 2019-060B can be tracked NOW for your location showing map with azimuth and elevation plus other details from your city location.

Track the satellite on the map from your city or location and see movement details for azimuth, elevation, latitude, longitude, range, height, and movement on the map or in text.







IsCatalogInMostPopularTable: catalog: 44535, numindb: 10
Update: records affected: 1



GetName: 44535 2019-060B

Hit Count: updated at: Sun, 17 Nov 2019 14:25:19 GMT